カタログに戻る

SL-14 DEB

運用中PO
NORAD 45271·DEBRIS·🇷🇺 Russia

打ち上げ Aug 15, 1991 から Plesetsk Cosmodrome

Loading…

次のパス (今後24時間)

TLE

最新Source: Space-Track

元期: Sep 13, 2026, 23:38 UTC

1 45271U 91056H   26256.98508216 -.00000016  00000-0 -84610-4 0  9992
2 45271  82.3845  95.4964 0050696 127.0317 233.5453 13.06728279313439

AllMySatでSL-14 DEBをリアルタイム追跡

Download on the App Store